,,Stat6,,Stat2,,Stat8,,Stat9,,Stat10,,Wind1,,Wind1,
time,status,PA1M_AVG,status,PR1M_SUM,status,RH1M_AVG,status,SR1M_AVG,status,TA1M_AVG,status,W1dAve1m,status,W1sAve1m,
2007-03-14, 00:00:00,VALID,917.256,VALID,0,VALID,100,VALID,16.3865,VALID,18.7536,VALID,141,VALID,0.633003,
2007-03-14, 00:01:00,VALID,917.274,VALID,0,VALID,100,VALID,16.7771,VALID,18.7636,VALID,141,VALID,0.853609,
2007-03-14, 00:02:00,VALID,917.301,VALID,0,VALID,100,VALID,17.1676,VALID,18.7603,VALID,130,VALID,1.26979,
2007-03-14, 00:03:00,VALID,917.301,VALID,0,VALID,100,VALID,16.6582,VALID,18.7668,VALID,139,VALID,1.27744,
2007-03-14, 00:04:00,VALID,917.324,VALID,0,VALID,100,VALID,16.0299,VALID,18.7701,VALID,147,VALID,0.45191,
2007-03-14, 00:05:00,VALID,917.345,VALID,0,VALID,100,VALID,20.3091,VALID,18.7798,VALID,132,VALID,0.176639,
2007-03-14, 00:06:00,VALID,917.356,VALID,0,VALID,100,VALID,21.6166,VALID,18.7728,VALID,138,VALID,0.446733,
2007-03-14, 00:07:00,VALID,917.375,VALID,0,VALID,100,VALID,19.1544,VALID,18.7828,VALID,149,VALID,0.746271,
2007-03-14, 00:08:00,VALID,917.382,VALID,0,VALID,100,VALID,20.8185,VALID,18.7865,VALID,151,VALID,0.692336,
2007-03-14, 00:09:00,VALID,917.401,VALID,0,VALID,100,VALID,25.9467,VALID,18.7928,VALID,152,VALID,0.481286,
2007-03-14, 00:10:00,VALID,917.415,VALID,0,VALID,100,VALID,25.5562,VALID,18.7993,VALID,152,VALID,0.385653,
2007-03-14, 00:11:00,VALID,917.428,VALID,0,VALID,100,VALID,30.3787,VALID,18.8222,VALID,153,VALID,0.501042,
2007-03-14, 00:12:00,VALID,917.444,VALID,0,VALID,100,VALID,27.9504,VALID,18.8284,VALID,169,VALID,0.535156,
2007-03-14, 00:13:00,VALID,917.467,VALID,0,VALID,100,VALID,25.5562,VALID,18.8349,VALID,140,VALID,0.662388,
2007-03-14, 00:14:00,VALID,917.467,VALID,0,VALID,100,VALID,28.5448,VALID,18.8347,VALID,134,VALID,0.486243,
2007-03-14, 00:15:00,VALID,917.482,VALID,0,VALID,100,VALID,30.6164,VALID,18.831,VALID,133,VALID,0.167225,
2007-03-14, 00:16:00,VALID,917.499,VALID,0,VALID,100,VALID,39.82,VALID,18.8409,VALID,133,VALID,0.61044,
2007-03-14, 00:17:00,VALID,917.513,VALID,0,VALID,100,VALID,46.5954,VALID,18.8511,VALID,125,VALID,0.392113,
2007-03-14, 00:18:00,VALID,917.523,VALID,0,VALID,100,VALID,26.609,VALID,18.8576,VALID,127,VALID,0.542683,
2007-03-14, 00:19:00,VALID,917.529,VALID,0,VALID,100,VALID,19.9864,VALID,18.8574,VALID,130,VALID,0.836664,
2007-03-14, 00:20:00,VALID,917.548,VALID,0,VALID,100,VALID,21.0392,VALID,18.8576,VALID,132,VALID,0.519886,
2007-03-14, 00:21:00,VALID,917.566,VALID,0,VALID,100,VALID,21.4468,VALID,18.8609,VALID,126,VALID,0.653232,
2007-03-14, 00:22:00,VALID,917.588,VALID,0,VALID,100,VALID,21.1072,VALID,18.8542,VALID,122,VALID,0.912109,
2007-03-14, 00:23:00,VALID,917.6,VALID,0,VALID,100,VALID,30.3617,VALID,18.8576,VALID,126,VALID,0.593006,
2007-03-14, 00:24:00,VALID,917.614,VALID,0,VALID,100,VALID,36.8824,VALID,18.8671,VALID,126,VALID,0.812322,
2007-03-14, 00:25:00,VALID,917.631,VALID,0,VALID,100,VALID,36.1522,VALID,18.8604,VALID,126,VALID,0.495739,
2007-03-14, 00:26:00,VALID,917.633,VALID,0,VALID,100,VALID,40.8729,VALID,18.8671,VALID,109,VALID,0.861979,
2007-03-14, 00:27:00,VALID,917.652,VALID,0,VALID,100,VALID,42.0955,VALID,18.8766,VALID,101,VALID,0.560369,
2007-03-14, 00:28:00,VALID,917.657,VALID,0,VALID,100,VALID,57.8537,VALID,18.8609,VALID,122,VALID,1.06428,
2007-03-14, 00:29:00,VALID,917.661,VALID,0,VALID,100,VALID,66.7686,VALID,18.8379,VALID,128,VALID,1.11966,
2007-03-14, 00:30:00,VALID,917.67,VALID,0,VALID,100,VALID,80.3533,VALID,18.8349,VALID,124,VALID,0.855945,
2007-03-14, 00:31:00,VALID,917.68,VALID,0,VALID,100,VALID,92.6304,VALID,18.8718,VALID,124,VALID,1.18862,
2007-03-14, 00:32:00,VALID,917.683,VALID,0,VALID,100,VALID,108.134,VALID,18.8783,VALID,133,VALID,1.59531,
2007-03-14, 00:33:00,VALID,917.702,VALID,0,VALID,100,VALID,106.504,VALID,18.9142,VALID,139,VALID,1.08092,
2007-03-14, 00:34:00,VALID,917.708,VALID,0,VALID,100,VALID,106.453,VALID,18.9791,VALID,139,VALID,0.646984,
2007-03-14, 00:35:00,VALID,917.732,VALID,0,VALID,100,VALID,108.049,VALID,19.0345,VALID,117,VALID,0.932594,
2007-03-14, 00:36:00,VALID,917.749,VALID,0,VALID,100,VALID,124.079,VALID,19.0729,VALID,129,VALID,1.22826,
2007-03-14, 00:37:00,VALID,917.772,VALID,0,VALID,100,VALID,146.528,VALID,19.0959,VALID,133,VALID,1.14737,
2007-03-14, 00:38:00,VALID,917.786,VALID,0,VALID,100,VALID,124.911,VALID,19.1151,VALID,151,VALID,1.35211,
2007-03-14, 00:39:00,VALID,917.806,VALID,0,VALID,100,VALID,114.349,VALID,19.1118,VALID,162,VALID,0.888808,
2007-03-14, 00:40:00,VALID,917.8,VALID,0,VALID,100,VALID,90.5248,VALID,19.1153,VALID,149,VALID,1.363,
2007-03-14, 00:41:00,VALID,917.804,VALID,0,VALID,100,VALID,33.4013,VALID,19.1118,VALID,135,VALID,1.00316,
2007-03-14, 00:42:00,VALID,917.809,VALID,0,VALID,100,VALID,34.4881,VALID,19.1186,VALID,143,VALID,1.04492,
2007-03-14, 00:43:00,VALID,917.805,VALID,0,VALID,100,VALID,37.4088,VALID,19.1346,VALID,132,VALID,0.817224,
2007-03-14, 00:44:00,VALID,917.822,VALID,0,VALID,100,VALID,41.4672,VALID,19.1802,VALID,152,VALID,1.14249,
2007-03-14, 00:45:00,VALID,917.819,VALID,0,VALID,100,VALID,73.0515,VALID,19.147,VALID,147,VALID,1.61337,
2007-03-14, 00:46:00,VALID,917.821,VALID,0,VALID,100,VALID,112.668,VALID,19.1271,VALID,160,VALID,1.00419,
2007-03-14, 00:47:00,VALID,917.826,VALID,0,VALID,100,VALID,111.513,VALID,19.1623,VALID,138,VALID,1.39463,
2007-03-14, 00:48:00,VALID,917.842,VALID,0,VALID,100,VALID,133.198,VALID,19.1598,VALID,156,VALID,1.57213,
2007-03-14, 00:49:00,VALID,917.859,VALID,0,VALID,100,VALID,161.131,VALID,19.1762,VALID,161,VALID,1.85435,
2007-03-14, 00:50:00,VALID,917.885,VALID,0,VALID,100,VALID,168.823,VALID,19.1922,VALID,167,VALID,1.11477,
2007-03-14, 00:51:00,VALID,917.91,VALID,0,VALID,100,VALID,196.061,VALID,19.2633,VALID,159,VALID,0.907924,
2007-03-14, 00:52:00,VALID,917.924,VALID,0,VALID,100,VALID,244.032,VALID,19.3477,VALID,143,VALID,1.31268,
2007-03-14, 00:53:00,VALID,917.936,VALID,0,VALID,100,VALID,228.986,VALID,19.3547,VALID,172,VALID,1.15156,
2007-03-14, 00:54:00,VALID,917.938,VALID,0,VALID,100,VALID,216.285,VALID,19.4293,VALID,159,VALID,1.13228,
2007-03-14, 00:55:00,VALID,917.946,VALID,0,VALID,100,VALID,240.55,VALID,19.4552,VALID,167,VALID,1.22988,
2007-03-14, 00:56:00,VALID,917.94,VALID,0,VALID,100,VALID,246.324,VALID,19.5074,VALID,175,VALID,0.773819,
2007-03-14, 00:57:00,VALID,917.938,VALID,0,VALID,100,VALID,248.633,VALID,19.5034,VALID,141,VALID,1.02089,
2007-03-14, 00:58:00,VALID,917.946,VALID,0,VALID,100,VALID,187.417,VALID,19.5161,VALID,146,VALID,0.814024,
2007-03-14, 00:59:00,VALID,917.963,VALID,0,VALID,100,VALID,225.658,VALID,19.5586,VALID,150,VALID,0.540661,
2007-03-14, 01:00:00,VALID,917.961,VALID,0,VALID,100,VALID,268.399,VALID,19.6626,VALID,166,VALID,0.456745,
2007-03-14, 01:01:00,VALID,917.962,VALID,0,VALID,100,VALID,221.617,VALID,19.7175,VALID,152,VALID,1.26478,
2007-03-14, 01:02:00,VALID,917.986,VALID,0,VALID,100,VALID,253.728,VALID,19.6631,VALID,149,VALID,0.983842,
2007-03-14, 01:03:00,VALID,917.986,VALID,0,VALID,100,VALID,282.544,VALID,19.6918,VALID,133,VALID,0.672066,
2007-03-14, 01:04:00,VALID,917.995,VALID,0,VALID,100,VALID,299.389,VALID,19.7782,VALID,137,VALID,0.802591,
2007-03-14, 01:05:00,VALID,918.005,VALID,0,VALID,100,VALID,303.804,VALID,19.8336,VALID,152,VALID,0.720796,
2007-03-14, 01:06:00,VALID,918.015,VALID,0,VALID,100,VALID,277.331,VALID,19.8792,VALID,168,VALID,0.7629,
2007-03-14, 01:07:00,VALID,918.032,VALID,0,VALID,100,VALID,323.841,VALID,19.9112,VALID,160,VALID,0.571766,
2007-03-14, 01:08:00,VALID,918.063,VALID,0,VALID,100,VALID,259.195,VALID,19.9604,VALID,183,VALID,1.03374,
2007-03-14, 01:09:00,VALID,918.077,VALID,0,VALID,100,VALID,226.677,VALID,19.9599,VALID,179,VALID,1.36558,
2007-03-14, 01:10:00,VALID,918.103,VALID,0,VALID,100,VALID,175.395,VALID,19.8695,VALID,160,VALID,0.949826,
2007-03-14, 01:11:00,VALID,918.117,VALID,0,VALID,100,VALID,139.243,VALID,19.8014,VALID,192,VALID,0.721701,
2007-03-14, 01:12:00,VALID,918.148,VALID,0,VALID,100,VALID,166.531,VALID,19.7592,VALID,209,VALID,0.719308,
2007-03-14, 01:13:00,VALID,918.161,VALID,0,VALID,100,VALID,201.444,VALID,19.7592,VALID,217,VALID,0.109193,
2007-03-14, 01:14:00,VALID,918.183,VALID,0,VALID,100,VALID,205.4,VALID,19.7979,VALID,136,VALID,0.962636,
2007-03-14, 01:15:00,VALID,918.226,VALID,0,VALID,100,VALID,201.868,VALID,19.7844,VALID,154,VALID,0.940225,
2007-03-14, 01:16:00,VALID,918.239,VALID,0,VALID,100,VALID,239.684,VALID,19.7749,VALID,148,VALID,0.816679,
2007-03-14, 01:17:00,VALID,918.264,VALID,0,VALID,100,VALID,320.462,VALID,19.7819,VALID,144,VALID,0.937691,
2007-03-14, 01:18:00,VALID,918.273,VALID,0,VALID,100,VALID,327.951,VALID,19.7887,VALID,126,VALID,0.84157,
2007-03-14, 01:19:00,VALID,918.3,VALID,0,VALID,100,VALID,360.724,VALID,19.873,VALID,142,VALID,0.593217,
2007-03-14, 01:20:00,VALID,918.308,VALID,0,VALID,100,VALID,325.387,VALID,20.0053,VALID,185,VALID,0.402902,
2007-03-14, 01:21:00,VALID,918.323,VALID,0,VALID,100,VALID,247.003,VALID,20.0866,VALID,234,VALID,0.744665,
2007-03-14, 01:22:00,VALID,918.319,VALID,0,VALID,100,VALID,209,VALID,20.0315,VALID,229,VALID,1.18114,
2007-03-14, 01:23:00,VALID,918.343,VALID,0,VALID,100,VALID,235.201,VALID,19.9798,VALID,208,VALID,1.09884,
2007-03-14, 01:24:00,VALID,918.352,VALID,0,VALID,100,VALID,256.241,VALID,20.0412,VALID,181,VALID,0.479106,
2007-03-14, 01:25:00,VALID,918.352,VALID,0,VALID,100,VALID,298.489,VALID,20.1256,VALID,204,VALID,0.649346,
2007-03-14, 01:26:00,VALID,918.354,VALID,0,VALID,100,VALID,326.507,VALID,20.168,VALID,210,VALID,0.514382,
2007-03-14, 01:27:00,VALID,918.353,VALID,0,VALID,100,VALID,306.776,VALID,20.2489,VALID,210,VALID,0.370458,
2007-03-14, 01:28:00,VALID,918.349,VALID,0,VALID,100,VALID,307.098,VALID,20.34,VALID,210,VALID,0.185243,
2007-03-14, 01:29:00,VALID,918.34,VALID,0,VALID,100,VALID,321.413,VALID,20.4763,VALID,180,VALID,0.667225,
2007-03-14, 01:30:00,VALID,918.329,VALID,0,VALID,100,VALID,287.146,VALID,20.5317,VALID,193,VALID,0.75744,
2007-03-14, 01:31:00,VALID,918.322,VALID,0,VALID,100,VALID,256.818,VALID,20.5674,VALID,155,VALID,0.819949,
2007-03-14, 01:32:00,VALID,918.301,VALID,0,VALID,100,VALID,273.595,VALID,20.5382,VALID,129,VALID,0.827592,
2007-03-14, 01:33:00,VALID,918.3,VALID,0,VALID,100,VALID,256.58,VALID,20.522,VALID,136,VALID,0.639096,
2007-03-14, 01:34:00,VALID,918.306,VALID,0,VALID,100,VALID,295.67,VALID,20.5869,VALID,117,VALID,1.14444,
2007-03-14, 01:35:00,VALID,918.298,VALID,0,VALID,100,VALID,346.307,VALID,20.5999,VALID,128,VALID,1.41753,
2007-03-14, 01:36:00,VALID,918.302,VALID,0,VALID,100,VALID,258.295,VALID,20.5774,VALID,116,VALID,1.80611,
2007-03-14, 01:37:00,VALID,918.307,VALID,0,VALID,100,VALID,234.573,VALID,20.4733,VALID,99,VALID,1.40031,
2007-03-14, 01:38:00,VALID,918.306,VALID,0,VALID,100,VALID,242.266,VALID,20.4538,VALID,115,VALID,1.0726,
2007-03-14, 01:39:00,VALID,918.308,VALID,0,VALID,100,VALID,210.104,VALID,20.4571,VALID,137,VALID,1.06306,
2007-03-14, 01:40:00,VALID,918.314,VALID,0,VALID,100,VALID,182.255,VALID,20.4803,VALID,144,VALID,0.85883,
2007-03-14, 01:41:00,VALID,918.31,VALID,0,VALID,100,VALID,178.469,VALID,20.4379,VALID,147,VALID,1.34702,
2007-03-14, 01:42:00,VALID,918.318,VALID,0,VALID,100,VALID,220.241,VALID,20.3824,VALID,162,VALID,0.881882,
2007-03-14, 01:43:00,VALID,918.319,VALID,0,VALID,100,VALID,248.803,VALID,20.4381,VALID,169,VALID,0.583398,
2007-03-14, 01:44:00,VALID,918.316,VALID,0,VALID,100,VALID,306.708,VALID,20.5192,VALID,160,VALID,0.172763,
2007-03-14, 01:45:00,VALID,918.334,VALID,0,VALID,100,VALID,346.46,VALID,20.5971,VALID,174,VALID,0.832332,
2007-03-14, 01:46:00,VALID,918.332,VALID,0,VALID,100,VALID,574.309,VALID,20.7172,VALID,194,VALID,0.807173,
2007-03-14, 01:47:00,VALID,918.332,VALID,0,VALID,100,VALID,545.39,VALID,20.86,VALID,208,VALID,0.791424,
2007-03-14, 01:48:00,VALID,918.323,VALID,0,VALID,100,VALID,523.536,VALID,21.0196,VALID,178,VALID,1.58416,
2007-03-14, 01:49:00,VALID,918.344,VALID,0,VALID,100,VALID,537.409,VALID,21.1164,VALID,176,VALID,1.23365,
2007-03-14, 01:50:00,VALID,918.336,VALID,0,VALID,100,VALID,516.998,VALID,21.2893,VALID,173,VALID,0.882994,
2007-03-14, 01:51:00,VALID,918.347,VALID,0,VALID,100,VALID,493.701,VALID,21.3477,VALID,183,VALID,0.698633,
2007-03-14, 01:52:00,VALID,918.337,VALID,0,VALID,100,VALID,501.325,VALID,21.454,VALID,190,VALID,1.41715,
2007-03-14, 01:53:00,VALID,918.322,VALID,0,VALID,100,VALID,509.357,VALID,21.5425,VALID,192,VALID,1.13808,
2007-03-14, 01:54:00,VALID,918.321,VALID,0,VALID,99.6757,VALID,519.563,VALID,21.6366,VALID,181,VALID,0.865625,
2007-03-14, 01:55:00,VALID,918.305,VALID,0,VALID,99.9046,VALID,500.968,VALID,21.7437,VALID,189,VALID,0.588423,
2007-03-14, 01:56:00,VALID,918.286,VALID,0,VALID,99.1455,VALID,521.634,VALID,21.896,VALID,172,VALID,1.07578,
2007-03-14, 01:57:00,VALID,918.274,VALID,0,VALID,97.2243,VALID,526.542,VALID,21.8509,VALID,166,VALID,1.3608,
2007-03-14, 01:58:00,VALID,918.249,VALID,0,VALID,97.4456,VALID,532.655,VALID,21.8414,VALID,170,VALID,1.10061,
2007-03-14, 01:59:00,VALID,918.234,VALID,0,VALID,97.6541,VALID,536.068,VALID,21.8999,VALID,164,VALID,0.788336,
2007-03-14, 02:00:00,VALID,918.23,VALID,0,VALID,97.3553,VALID,540.5,VALID,22.0062,VALID,160,VALID,1.10778,
2007-03-14, 02:01:00,VALID,918.219,VALID,0,VALID,96.0863,VALID,546.885,VALID,22.0021,VALID,135,VALID,0.996094,
2007-03-14, 02:02:00,VALID,918.223,VALID,0,VALID,95.9248,VALID,546.426,VALID,22.041,VALID,166,VALID,1.41479,
2007-03-14, 02:03:00,VALID,918.218,VALID,0,VALID,95.6221,VALID,550.162,VALID,22.0735,VALID,155,VALID,1.0465,
2007-03-14, 02:04:00,VALID,918.221,VALID,0,VALID,96.1142,VALID,554.577,VALID,22.1774,VALID,161,VALID,1.11592,
2007-03-14, 02:05:00,VALID,918.225,VALID,0,VALID,94.7282,VALID,560.198,VALID,22.255,VALID,166,VALID,1.85385,
2007-03-14, 02:06:00,VALID,918.232,VALID,0,VALID,94.6201,VALID,565.886,VALID,22.3232,VALID,152,VALID,1.33047,
2007-03-14, 02:07:00,VALID,918.236,VALID,0,VALID,94.0491,VALID,570.335,VALID,22.4112,VALID,178,VALID,1.47656,
2007-03-14, 02:08:00,VALID,918.246,VALID,0,VALID,92.8271,VALID,570.114,VALID,22.4599,VALID,181,VALID,1.53979,
2007-03-14, 02:09:00,VALID,918.234,VALID,0,VALID,92.714,VALID,567.194,VALID,22.5178,VALID,170,VALID,1.09989,
2007-03-14, 02:10:00,VALID,918.229,VALID,0,VALID,92.2625,VALID,562.83,VALID,22.5154,VALID,184,VALID,1.3418,
2007-03-14, 02:11:00,VALID,918.234,VALID,0,VALID,93.435,VALID,573.782,VALID,22.5968,VALID,183,VALID,1.07412,
2007-03-14, 02:12:00,VALID,918.24,VALID,0,VALID,93.4159,VALID,589.829,VALID,22.7589,VALID,195,VALID,0.951225,
2007-03-14, 02:13:00,VALID,918.226,VALID,0,VALID,92.3083,VALID,589.914,VALID,22.9083,VALID,189,VALID,1.18732,
2007-03-14, 02:14:00,VALID,918.24,VALID,0,VALID,91.5415,VALID,487.91,VALID,23.1005,VALID,174,VALID,0.741655,
2007-03-14, 02:15:00,VALID,918.246,VALID,0,VALID,90.743,VALID,541.298,VALID,23.2295,VALID,186,VALID,1.19107,
2007-03-14, 02:16:00,VALID,918.249,VALID,0,VALID,89.0276,VALID,612.278,VALID,23.3275,VALID,151,VALID,0.704942,
2007-03-14, 02:17:00,VALID,918.242,VALID,0,VALID,90.008,VALID,465.462,VALID,23.4513,VALID,161,VALID,0.337798,
2007-03-14, 02:18:00,VALID,918.245,VALID,0,VALID,88.1896,VALID,461.692,VALID,23.4967,VALID,191,VALID,0.815739,
2007-03-14, 02:19:00,VALID,918.239,VALID,0,VALID,88.2468,VALID,617.236,VALID,23.5062,VALID,147,VALID,1.04942,
2007-03-14, 02:20:00,VALID,918.241,VALID,0,VALID,87.9098,VALID,493.191,VALID,23.5032,VALID,89,VALID,0.76726,
2007-03-14, 02:21:00,VALID,918.229,VALID,0,VALID,89.4129,VALID,616.455,VALID,23.549,VALID,23,VALID,0.699574,
2007-03-14, 02:22:00,VALID,918.222,VALID,0,VALID,89.2679,VALID,624.589,VALID,23.6967,VALID,177,VALID,1.08346,
2007-03-14, 02:23:00,VALID,918.226,VALID,0,VALID,87.3961,VALID,628.562,VALID,23.7421,VALID,223,VALID,0.780556,
2007-03-14, 02:24:00,VALID,918.219,VALID,0,VALID,87.7089,VALID,638.938,VALID,23.7847,VALID,224,VALID,0.674079,
2007-03-14, 02:25:00,VALID,918.198,VALID,0,VALID,86.5505,VALID,647.089,VALID,23.7489,VALID,256,VALID,0.744097,
2007-03-14, 02:26:00,VALID,918.202,VALID,0,VALID,88.4401,VALID,654.611,VALID,23.785,VALID,227,VALID,0.15067,
2007-03-14, 02:27:00,VALID,918.188,VALID,0,VALID,88.9704,VALID,660.996,VALID,24.0966,VALID,117,VALID,0.455128,
2007-03-14, 02:28:00,VALID,918.177,VALID,0,VALID,87.1405,VALID,674.411,VALID,24.4026,VALID,60,VALID,1.06214,
2007-03-14, 02:29:00,VALID,918.18,VALID,0,VALID,84.8974,VALID,524.81,VALID,24.4838,VALID,99,VALID,1.15385,
2007-03-14, 02:30:00,VALID,918.185,VALID,0,VALID,85.9032,VALID,642.911,VALID,24.4017,VALID,119,VALID,0.589648,
2007-03-14, 02:31:00,VALID,918.17,VALID,0,VALID,85.3971,VALID,430.821,VALID,24.3683,VALID,62,VALID,1.21802,
2007-03-14, 02:32:00,VALID,918.178,VALID,0,VALID,86.8404,VALID,446.46,VALID,24.3195,VALID,90,VALID,0.467226,
2007-03-14, 02:33:00,VALID,918.194,VALID,0,VALID,87.5462,VALID,518.017,VALID,24.3325,VALID,206,VALID,0.576079,
2007-03-14, 02:34:00,VALID,918.195,VALID,0,VALID,87.1303,VALID,477.212,VALID,24.3455,VALID,168,VALID,1.00191,
2007-03-14, 02:35:00,VALID,918.199,VALID,0,VALID,86.726,VALID,724.589,VALID,24.2672,VALID,216,VALID,0.806463,
2007-03-14, 02:36:00,VALID,918.198,VALID,0,VALID,86.8519,VALID,587.724,VALID,24.2026,VALID,223,VALID,0.277344,
2007-03-14, 02:37:00,VALID,918.194,VALID,0,VALID,87.0947,VALID,642.809,VALID,24.3423,VALID,238,VALID,0.316134,
2007-03-14, 02:38:00,VALID,918.212,VALID,0,VALID,87.475,VALID,590.373,VALID,24.5112,VALID,235,VALID,0.418155,
2007-03-14, 02:39:00,VALID,918.211,VALID,0,VALID,86.1245,VALID,749.5,VALID,24.6409,VALID,260,VALID,0.736919,
2007-03-14, 02:40:00,VALID,918.211,VALID,0,VALID,85.3971,VALID,356.784,VALID,24.4985,VALID,246,VALID,0.474564,
2007-03-14, 02:41:00,VALID,918.216,VALID,0,VALID,85.6464,VALID,267.091,VALID,24.3618,VALID,295,VALID,0.84996,
2007-03-14, 02:42:00,VALID,918.212,VALID,0,VALID,86.9498,VALID,251.435,VALID,24.2909,VALID,354,VALID,0.411882,
2007-03-14, 02:43:00,VALID,918.211,VALID,0,VALID,86.1538,VALID,274.461,VALID,24.1414,VALID,277,VALID,0.879092,
2007-03-14, 02:44:00,VALID,918.208,VALID,0,VALID,85.7176,VALID,748.583,VALID,23.94,VALID,301,VALID,0.748183,
2007-03-14, 02:45:00,VALID,918.202,VALID,0,VALID,86.1983,VALID,769.843,VALID,23.8939,VALID,273,VALID,1.01944,
2007-03-14, 02:46:00,VALID,918.202,VALID,0,VALID,86.7196,VALID,778.69,VALID,23.8981,VALID,259,VALID,0.905048,
2007-03-14, 02:47:00,VALID,918.204,VALID,0,VALID,86.9053,VALID,488.691,VALID,23.9988,VALID,203,VALID,1.11793,
2007-03-14, 02:48:00,VALID,918.212,VALID,0,VALID,86.5734,VALID,624.64,VALID,24.2103,VALID,193,VALID,1.25563,
2007-03-14, 02:49:00,VALID,918.215,VALID,0,VALID,85.214,VALID,757.532,VALID,24.4348,VALID,201,VALID,0.995458,
2007-03-14, 02:50:00,VALID,918.2,VALID,0,VALID,83.7911,VALID,817.016,VALID,24.6983,VALID,224,VALID,0.755551,
2007-03-14, 02:51:00,VALID,918.215,VALID,0,VALID,82.4229,VALID,765.207,VALID,24.8011,VALID,220,VALID,0.943266,
2007-03-14, 02:52:00,VALID,918.219,VALID,0,VALID,81.8379,VALID,855.562,VALID,24.9128,VALID,218,VALID,0.763086,
2007-03-14, 02:53:00,VALID,918.218,VALID,0,VALID,82.2881,VALID,857.634,VALID,25.114,VALID,245,VALID,1.06348,
2007-03-14, 02:54:00,VALID,918.227,VALID,0,VALID,82.4178,VALID,862.185,VALID,25.1852,VALID,300,VALID,0.425694,
2007-03-14, 02:55:00,VALID,918.224,VALID,0,VALID,80.9465,VALID,874.75,VALID,25.3019,VALID,255,VALID,0.712573,
2007-03-14, 02:56:00,VALID,918.209,VALID,0,VALID,79.5935,VALID,752.37,VALID,25.3704,VALID,194,VALID,0.724609,
2007-03-14, 02:57:00,VALID,918.195,VALID,0,VALID,78.8776,VALID,288.47,VALID,25.4777,VALID,166,VALID,0.865916,
2007-03-14, 02:58:00,VALID,918.185,VALID,0,VALID,80.4786,VALID,255.239,VALID,25.4549,VALID,183,VALID,0.5359,
2007-03-14, 02:59:00,VALID,918.185,VALID,0,VALID,81.3725,VALID,253.999,VALID,25.4124,VALID,255,VALID,0.509909,
2007-03-14, 03:00:00,VALID,918.171,VALID,0,VALID,81.8926,VALID,269.825,VALID,25.4065,VALID,349,VALID,0.866443,
2007-03-14, 03:01:00,VALID,918.187,VALID,0,VALID,81.3941,VALID,296.214,VALID,25.309,VALID,348,VALID,0.648828,
2007-03-14, 03:02:00,VALID,918.2,VALID,0,VALID,82.4203,VALID,330.005,VALID,25.2284,VALID,351,VALID,0.644436,
2007-03-14, 03:03:00,VALID,918.195,VALID,0,VALID,82.1863,VALID,350.96,VALID,25.1468,VALID,15,VALID,0.597834,
2007-03-14, 03:04:00,VALID,918.218,VALID,0,VALID,83.4173,VALID,319.562,VALID,25.1923,VALID,354,VALID,0.302083,
2007-03-14, 03:05:00,VALID,918.218,VALID,0,VALID,82.5882,VALID,302.751,VALID,25.1075,VALID,298,VALID,0.335029,
2007-03-14, 03:06:00,VALID,918.23,VALID,0,VALID,82.4419,VALID,336.034,VALID,25.0688,VALID,349,VALID,0.356399,
2007-03-14, 03:07:00,VALID,918.216,VALID,0,VALID,81.7972,VALID,570.896,VALID,25.1276,VALID,355,VALID,0.876243,
2007-03-14, 03:08:00,VALID,918.214,VALID,0,VALID,82.6365,VALID,678.452,VALID,25.1783,VALID,353,VALID,0.691501,
2007-03-14, 03:09:00,VALID,918.197,VALID,0,VALID,81.5531,VALID,692.444,VALID,25.3743,VALID,29,VALID,1.29451,
2007-03-14, 03:10:00,VALID,918.18,VALID,0,VALID,81.7553,VALID,362.982,VALID,25.5368,VALID,17,VALID,0.848656,
2007-03-14, 03:11:00,VALID,918.161,VALID,0,VALID,79.6584,VALID,335.762,VALID,25.5333,VALID,276,VALID,0.559375,
2007-03-14, 03:12:00,VALID,918.136,VALID,0,VALID,79.1879,VALID,662.151,VALID,25.3126,VALID,303,VALID,1.117,
2007-03-14, 03:13:00,VALID,918.111,VALID,0,VALID,78.8967,VALID,513.976,VALID,24.9681,VALID,307,VALID,1.16606,
2007-03-14, 03:14:00,VALID,918.093,VALID,0,VALID,81.501,VALID,400.934,VALID,24.8901,VALID,27,VALID,0.93859,
2007-03-14, 03:15:00,VALID,918.076,VALID,0,VALID,82.0185,VALID,358.55,VALID,25.059,VALID,23,VALID,0.65952,
2007-03-14, 03:16:00,VALID,918.075,VALID,0,VALID,81.1691,VALID,341.722,VALID,25.1436,VALID,338,VALID,0.436806,
2007-03-14, 03:17:00,VALID,918.055,VALID,0,VALID,81.1487,VALID,334.59,VALID,25.1923,VALID,293,VALID,0.575893,
2007-03-14, 03:18:00,VALID,918.054,VALID,0,VALID,80.5498,VALID,607.489,VALID,25.1114,VALID,285,VALID,0.574041,
2007-03-14, 03:19:01,VALID,918.065,VALID,0,VALID,79.68,VALID,666.616,VALID,25.0363,VALID,274,VALID,0.73473,
2007-03-14, 03:20:00,VALID,918.07,VALID,0,VALID,79.4816,VALID,860.13,VALID,25.0691,VALID,319,VALID,0.660442,
2007-03-14, 03:21:00,VALID,918.073,VALID,0,VALID,79.2273,VALID,881.067,VALID,25.2131,VALID,257,VALID,0.849382,
2007-03-14, 03:22:00,VALID,918.084,VALID,0,VALID,77.62,VALID,496.367,VALID,25.2001,VALID,272,VALID,0.843568,
2007-03-14, 03:23:00,VALID,918.089,VALID,0,VALID,78.8255,VALID,474.461,VALID,25.1634,VALID,270,VALID,0.68641,
2007-03-14, 03:24:01,VALID,918.087,VALID,0,VALID,78.7098,VALID,357.362,VALID,25.1149,VALID,265,VALID,1.18005,
2007-03-14, 03:25:00,VALID,918.076,VALID,0,VALID,78.8865,VALID,303.651,VALID,24.9199,VALID,259,VALID,1.26065,
2007-03-14, 03:26:00,VALID,918.079,VALID,0,VALID,79.7182,VALID,284.123,VALID,24.7643,VALID,247,VALID,1.02121,
2007-03-14, 03:27:00,VALID,918.072,VALID,0,VALID,80.2293,VALID,271.88,VALID,24.7412,VALID,254,VALID,0.732013,
2007-03-14, 03:28:00,VALID,918.049,VALID,0,VALID,80.3095,VALID,271.082,VALID,24.7341,VALID,249,VALID,0.536882,
2007-03-14, 03:29:00,VALID,918.034,VALID,0,VALID,81.4425,VALID,305.621,VALID,24.7506,VALID,257,VALID,0.557884,
2007-03-14, 03:30:01,VALID,918.015,VALID,0,VALID,80.7952,VALID,297.742,VALID,24.7087,VALID,262,VALID,0.582386,
2007-03-14, 03:31:00,VALID,917.996,VALID,0,VALID,81.9041,VALID,255.256,VALID,24.7178,VALID,261,VALID,0.456364,
2007-03-14, 03:32:00,VALID,917.994,VALID,0,VALID,81.5556,VALID,241.484,VALID,24.6951,VALID,262,VALID,1.17539,
2007-03-14, 03:33:01,VALID,917.971,VALID,0,VALID,81.0979,VALID,239.837,VALID,24.5917,VALID,253,VALID,1.15949,
2007-03-14, 03:34:00,VALID,917.966,VALID,0,VALID,80.8969,VALID,283.376,VALID,24.5716,VALID,254,VALID,0.926215,
2007-03-14, 03:35:00,VALID,917.972,VALID,0,VALID,80.6261,VALID,289.404,VALID,24.5748,VALID,235,VALID,0.840774,
2007-03-14, 03:36:01,VALID,917.969,VALID,0,VALID,80.9656,VALID,315.538,VALID,24.6723,VALID,228,VALID,0.444382,
2007-03-14, 03:37:00,VALID,917.968,VALID,0,VALID,80.7087,VALID,340.194,VALID,24.8221,VALID,248,VALID,0.54154,
2007-03-14, 03:38:00,VALID,917.957,VALID,0,VALID,80.4379,VALID,381.712,VALID,24.8998,VALID,219,VALID,0.82049,
2007-03-14, 03:39:00,VALID,917.956,VALID,0,VALID,79.3316,VALID,360.248,VALID,25.0298,VALID,210,VALID,0.930804,